Flag for India Weather past 2 weeks in Dharamshala, Himachal Pradesh, India

Now
46 °F

Fog.


Feels Like: 46 °F
Forecast: 36 / 53 °F
Wind: No wind

Location: Amritsar Airport

Current Time: Mar 4, 2015 at 8:30:11 AM

Latest Report: Mar 4, 2015 at 7:30 AM


Visibility: 0 mi

Pressure: 29.95 "Hg

Humidity: 100%

Dew point: 46 °F

Location of DharamshalaLocation

Historic Weather in Dharamshala — Graph

°F

Dharamshala temperature yesterday

Maximum temperature yesterday: 66 °F (at 1:00 PM)
Minimum temperature yesterday: 55 °F (at 10:00 PM)
Average temperature yesterday: 61 °F

Past Weeks' High & Low Weather Summary

 TemperatureHumidityPressure
High79 °F (Feb 23, 3:30 PM)100% (Feb 17, 6:30 AM)30.09 "Hg (Feb 17, 6:30 AM)
Low46 °F (Mar 4, 6:30 AM)36% (Feb 27, 2:30 PM)29.71 "Hg (Feb 25, 7:30 AM)
Average63 °F82%29.94 "Hg
* Reported Feb 17 6:30 AM — Mar 4 7:00 AM, Dharamshala, Weather by CustomWeather, © 2015

Note: Actual official high and low records may vary slightly from our data, if they occured in-between our weather recording intervals... More about our weather records

Advertising

Dharamshala weather history for previous 24 hours

 ConditionsComfort  
Time TempWeatherWind HumidityBarometerVisibility
7:00 AM
Wed, Mar 4
46 °FFog.No wind100%29.92 "Hg0 mi
6:30 AM46 °FFog.No wind100%29.92 "Hg1 mi
6:00 AM48 °FFog.No wind100%29.92 "Hg1 mi
5:30 AM48 °FFog.No wind100%29.92 "Hg2 mi
5:00 AM50 °FFog.No wind100%29.92 "Hg2 mi
4:30 AM50 °FFog.No wind100%29.92 "Hg2 mi
4:00 AM50 °FFog.3 mph94%29.92 "Hg2 mi
3:30 AM50 °FFog.No wind100%29.92 "Hg2 mi
3:00 AM50 °FFog.No wind100%29.95 "Hg2 mi
2:30 AM50 °FFog.No wind100%29.95 "Hg2 mi
2:00 AM52 °FFog.No wind94%29.95 "Hg2 mi
1:30 AM54 °FFog.No wind94%29.95 "Hg2 mi
1:00 AM54 °FFog.5 mph94%29.95 "Hg2 mi
12:30 AM54 °FFog.1 mph94%29.98 "Hg2 mi
12:00 AM57 °FFog.3 mph88%29.98 "Hg2 mi
11:30 PM
Tue, Mar 3
55 °FFog.No wind94%29.98 "Hg2 mi
11:00 PM55 °FFog.No wind94%29.98 "Hg2 mi
10:30 PM55 °FFog.No wind94%29.98 "Hg2 mi
10:00 PM55 °FFog.No wind100%29.98 "Hg2 mi
9:30 PM57 °FFog.No wind94%29.98 "Hg2 mi
9:00 PM57 °FFog.No wind94%29.98 "Hg2 mi
8:30 PM57 °FFog.5 mph94%29.98 "Hg2 mi
8:00 PM57 °FFog.No wind94%29.95 "Hg2 mi
7:30 PM59 °FFog.No wind88%29.95 "Hg2 mi
7:00 PM59 °FFog.No wind88%29.95 "Hg2 mi
6:30 PM61 °FScattered clouds.2 mph83%29.95 "Hg2 mi
6:00 PM63 °FPartly sunny.2 mph83%29.92 "Hg2 mi
5:30 PM64 °FScattered clouds.7 mph73%29.92 "Hg2 mi
5:00 PM66 °FScattered clouds.6 mph64%29.92 "Hg2 mi
4:00 PM66 °FScattered clouds.8 mph64%29.95 "Hg3 mi
3:30 PM66 °FScattered clouds.7 mph64%29.95 "Hg3 mi
3:00 PM66 °FScattered clouds.7 mph64%29.95 "Hg3 mi
2:30 PM66 °FScattered clouds.5 mph73%29.98 "Hg3 mi
1:00 PM66 °FFog.7 mph78%30.01 "Hg2 mi
8:00 AM59 °FFog.No wind100%30.01 "Hg1 mi
Weather by CustomWeather, © 2015

See weather overviewHow to use our weather pages